AirNav   Air Wisconsin pilot careers
 
 291 users online  

2N6 Redwing Airport
Jobstown, New Jersey, USA

GOING TO JOBSTOWN?


FAA INFORMATION EFFECTIVE 06 DECEMBER 2018

Location

FAA Identifier: 2N6
Lat/Long: 40-01-37.5000N / 074-41-27.2000W
40-01.625000N / 074-41.453333W
40.0270833 / -74.6908889
(estimated)
Elevation: 78 ft. / 24 m (estimated)
Variation: 12W (1985)
From city: 1 mile S of JOBSTOWN, NJ
Time zone: UTC -5 (UTC -4 during Daylight Saving Time)
Zip code: 08041

Airport Operations

Airport use: Open to the public
Activation date: 03/1960
Control tower: no
ARTCC: NEW YORK CENTER
FSS: MILLVILLE FLIGHT SERVICE STATION
NOTAMs facility: MIV (NOTAM-D service available)
Attendance: IREG
Pattern altitude: 803 ft. MSL
Wind indicator: yes
Segmented circle: no

Airport Communications

CTAF: 122.9
WX ASOS at VAY (9 nm SW): 119.325 (609-267-1176)
WX ASOS at PNE (15 nm W): PHONE 215-677-0146
WX ASOS at TTN (16 nm N): 126.775 (609-538-8690)
WX AWOS-3PT at MJX (19 nm E): 119.875 (732-797-2542)

Nearby radio navigation aids

VOR radial/distance  VOR name  Freq  Var
GXUr296/4.5MC GUIRE VORTAC110.6012W
RBVr231/13.8ROBBINSVILLE VORTAC113.8010W
ARDr154/16.8YARDLEY VOR/DME108.2010W
CYNr327/17.3COYLE VORTAC113.4010W
COLr246/29.7COLTS NECK VOR/DME115.4011W
VCNr033/32.0CEDAR LAKE VOR/DME115.2010W
SBJr186/33.4SOLBERG VOR/DME112.9010W
ACYr001/34.7ATLANTIC CITY VORTAC108.6010W
OODr060/36.7WOODSTOWN VORTAC112.8010W

 
NDB name  Hdg/Dist  Freq  Var  ID
LAKEHURST277/16.439611WNEL -. . .-..
AMBLER114/27.927512WING .. -. --.

Airport Services

Parking: tiedowns
Airframe service: MINOR
Powerplant service: MINOR
Bottled oxygen: NONE
Bulk oxygen: NONE

Runway Information

Runway 6/24

Dimensions: 1830 x 50 ft. / 558 x 15 m
Surface: turf, in good condition
RUNWAY 6  RUNWAY 24
Traffic pattern: leftleft
Obstructions: 56 ft. trees, 725 ft. from runway, 155 ft. left of centerline, 12:1 slope to clear
RY 06 FIRST HALF, TREES WITHIN 90 FT OF CTLN.
15 ft. road
RWY 24 ADDTNL OBSTRS, +35 TO +62 FT TREES, DIST 320-400 FT, 80-120 FT L.

Runway 11/29

Dimensions: 1590 x 70 ft. / 485 x 21 m
Surface: turf, in good condition
Runway edge lights: non-standard
RUNWAY 11  RUNWAY 29
Latitude: 40-01.645168N40-01.606395N
Longitude: 074-41.622142W074-41.285158W
Elevation: 73.0 ft.78.0 ft.
Gradient: 0.3% UP
Traffic pattern: rightleft
Runway heading: 111 magnetic, 099 true291 magnetic, 279 true
Obstructions: 38 ft. trees, 10 ft. from runway, 100 ft. left of centerline63 ft. tree, 1500 ft. from runway, 23:1 slope to clear

Airport Ownership and Management from official FAA records

Ownership: Privately-owned
Owner: CENTRAL JERSEY R.W. INC
PO BOX 186 BARBARA DR.
CROSSWICKS, NJ 08515
Phone 609-298-6645
Manager: GEORGE P. DENGLER
46 AIRPORT ROAD
JOBSTOWN, NJ 08041
Phone 609-298-6645

Airport Operational Statistics

Aircraft based on the field: 5
Single engine airplanes: 4
Helicopters: 1
    
Aircraft operations: avg 54/week *
79% local general aviation
21% transient general aviation
* for 12-month period ending 31 July 2018

Additional Remarks

NIGHT LANDINGS PROHIBITED DUE TO PERMANENT REDUCTION IN LENGTH OF RWY 11/29.
NSTD LIGHTING RY 11/29 OTS INDEFLY.

Instrument Procedures

There are no published instrument procedures at 2N6.

Some nearby airports with instrument procedures:

KWRI - McGuire Field (Joint Base Mc Guire Dix Lakehurst) Airport (5 nm E)
N14 - Flying W Airport (8 nm SW)
N73 - Red Lion Airport (8 nm S)
KVAY - South Jersey Regional Airport (9 nm SW)
N87 - Trenton-Robbinsville Airport (12 nm N)
KPNE - Northeast Philadelphia Airport (15 nm W)
KNEL - Lakehurst Maxfield Field Airport (16 nm E)
KTTN - Trenton Mercer Airport (16 nm N)
19N - Camden County Airport (19 nm SW)
KMJX - Ocean County Airport (19 nm E)
 
Loc | Ops | Rwys | IFR | FBO | Links
Com | Nav | Svcs | Stats | Notes


 
Area around 2N6 (Redwing Airport)
 
Road maps at: MapQuest Bing Google
 
Aerial photo
WARNING: Photo may not be current or correct
Aerial photo of 2N6 (Redwing Airport)
Looking north.

Do you have a better or more recent aerial photo of Redwing Airport that you would like to share? If so, please send us your photo.

 
Sectional chart

 
Airport distance calculator
Flying to Redwing Airport? Find the distance to fly.

From to 2N6

Sunrise and sunset
Times for 10-Dec-2018
 Local
(UTC-5)
 Zulu
(UTC)
Morning civil twilight06:4011:40
Sunrise07:1112:11
Sunset16:3221:32
Evening civil twilight17:0322:03

Current date and time
Zulu (UTC)  10-Dec-2018 10:05:19
Local (UTC-5)  10-Dec-2018 05:05:19
 
METAR
KWRI 
5nm E 
100956Z 35006KT 10SM FEW210 M05/M09 A3005 RMK AO2A SLP177 T10551091 RVRNO $
KVAY 
9nm SW 
ASOS 119.325 609-267-1176
100954Z AUTO 35005KT 10SM CLR M04/M09 A3009 RMK AO2 SLP190 T10441089
KPNE 
15nm W 
100954Z AUTO 35007KT 10SM CLR M03/M09 A3011 RMK AO2 SLP196 T10331089
KTTN 
16nm N 
ASOS 133.70 609-538-8690
100953Z AUTO 32005KT 10SM CLR M04/M09 A3008 RMK AO2 SLP182 T10391089
KNEL 
16nm E 
100900Z AUTO VRB04KT CLR M03/M08 A3006 RMK AO2 SLP178 6//// T10331078 56015 PNO $
KMJX 
19nm E 
AWOS-3 119.875 732-244-4450
100956Z AUTO 35005KT 10SM CLR M06/M08 A3008 RMK AO2 SLP193 T10561083 FZRANO
TAF
KWRI 
5nm E 
100200Z 1002/1108 VRB06KT 9999 BKN160 QNH3007INS BECMG 1014/1015 01012KT 9999 SKC QNH3010INS TX02/1019Z TNM02/1007Z
KPNE 
15nm W 
100520Z 1006/1106 36005KT P6SM BKN200 FM101100 01010KT P6SM SCT200 FM102300 02004KT P6SM SKC
KTTN 
16nm N 
100520Z 1006/1106 00000KT P6SM BKN200 FM101200 VRB03KT P6SM SCT025 FM101600 01007KT P6SM SCT250
NOTAMs
Click for the latest NOTAMs
NOTAMs are issued by the DoD/FAA and will open in a separate window not controlled by AirNav.

 

 
 

Would you like to see your business listed on this page?

 If your business provides an interesting product or service to pilots, flight crews, aircraft, or users of the Redwing Airport, you should consider listing it here.  To start the listing process, click on the button below
 
Add a business
 

Other Pages about Redwing Airport

Update a link
 
Copyright © AirNav, LLC. All rights reserved. Privacy Policy  Contact